Mecheria, Algeria

12:55 AM CET on November 19, 2019 (GMT +0100)
Mecheria

Weather History for DAAY - May, 2019

Change the Weather History Date:

Friday, May 24, 2019

  Actual Average Record
Temperature  
Mean Temperature 77 °F -  
Max Temperature 90 °F - - ()
Min Temperature 64 °F - - ()
Cooling Degree Days 12    
Growing Degree Days 27 (Base 50)    
Moisture  
Dew Point 58 °F    
Average Humidity 54    
Maximum Humidity 83    
Minimum Humidity 21    
Precipitation  
Precipitation 0.00 in - - ()
Sea Level Pressure  
Sea Level Pressure 30.07 in    
Wind  
Wind Speed 12 mph ()    
Max Wind Speed 23 mph    
Max Gust Speed -    
Visibility 6.2 miles    
Events      
T = Trace of Precipitation, MM = Missing Value Source: Averaged Metar Reports

Daily Weather History Graph

Daily Weather History Graph

Search for Another Location

Airport or City:

Astronomy

May. 24, 2019 Rise Set
Actual Time 5:55 AM CET 8:00 PM CET
Civil Twilight 5:27 AM CET 8:28 PM CET
Nautical Twilight 4:53 AM CET 9:02 PM CET
Astronomical Twilight 4:16 AM CET 9:39 PM CET
Moon 12:15 AM CET (5/24) 10:41 AM CET (5/24)
Length of Visible Light 15h 01m
Length of Day
14h 05m
Waning Gibbous, 71% of the Moon is Illuminated
May 24
Waning Gibbous
May 26
Last Quarter
Jun 3
New
Jun 10
First Quarter
Jun 17
Full

Hourly Weather History & Observations

Time (CET) Temp. Heat Index Dew Point Humidity Pressure Visibility Wind Dir Wind Speed Gust Speed Precip Events Conditions
1:00 AM 69.8 °F - 60.8 °F 73% 30.15 in 6.2 mi South 9.2 mph - N/A   Scattered Clouds
2:00 AM 66.2 °F - 57.2 °F 73% 30.15 in 6.2 mi South 6.9 mph - N/A   Partly Cloudy
3:00 AM 66.2 °F - 57.2 °F 73% 30.15 in 6.2 mi WSW 9.2 mph - N/A   Partly Cloudy
4:00 AM 66.2 °F - 55.4 °F 68% 30.15 in 6.2 mi WSW 13.8 mph - N/A   Scattered Clouds
5:00 AM 68.0 °F - 55.4 °F 64% 30.15 in 6.2 mi WSW 11.5 mph - N/A   Scattered Clouds
6:00 AM 66.2 °F - 59.0 °F 78% 30.09 in 6.2 mi WSW 13.8 mph - N/A   Scattered Clouds
7:00 AM 66 °F - 60 °F 77%  in 6 mi SSW 13.8 mph - -   Scattered Clouds
7:00 AM 66.2 °F - 60.8 °F 83% 30.09 in 6.2 mi SSW 13.8 mph - N/A   Partly Cloudy
8:00 AM 71.6 °F - 62.6 °F 73% 30.09 in 6.2 mi SSW 13.8 mph - N/A   Partly Cloudy
9:00 AM 73.4 °F - 62.6 °F 69% 30.12 in - SSW 16.1 mph - N/A   Clear
10:00 AM 78 °F - 63 °F 51%  in 6 mi WSW 16.1 mph - -   Scattered Clouds
10:00 AM 78.8 °F - 62.6 °F 57% 30.09 in 6.2 mi WSW 16.1 mph - N/A   Scattered Clouds
11:00 AM 82.4 °F 83.9 °F 64.4 °F 54% 30.06 in 6.2 mi NW 16.1 mph - N/A   Scattered Clouds
12:00 PM 84.2 °F 85.0 °F 62.6 °F 48% 30.06 in 6.2 mi WNW 13.8 mph - N/A   Scattered Clouds
1:00 PM 88 °F - 60 °F 29%  in 6 mi West 9.2 mph - -   Partly Cloudy
1:00 PM 87.8 °F 87.6 °F 60.8 °F 40% 30.06 in 6.2 mi West 9.2 mph - N/A   Scattered Clouds
2:00 PM 86.0 °F 84.9 °F 57.2 °F 37% 30.04 in 6.2 mi WSW 13.8 mph - N/A   Scattered Clouds
3:00 PM 89.6 °F 88.1 °F 57.2 °F 33% 30.01 in 6.2 mi WNW 23.0 mph - N/A   Scattered Clouds
4:00 PM 90 °F - 56 °F 21%  in 6 mi WNW 16.1 mph - -   Partly Cloudy
4:00 PM 89.6 °F 87.7 °F 55.4 °F 31% 30.01 in 6.2 mi WNW 16.1 mph - N/A   Scattered Clouds
6:00 PM 84.2 °F - 46.4 °F 27% 29.98 in 6.2 mi WNW 18.4 mph - N/A   Scattered Clouds
7:00 PM 82.4 °F - 51.8 °F 35% 29.98 in 6.2 mi NNE 16.1 mph - N/A   Scattered Clouds
8:00 PM 77.0 °F - 51.8 °F 41% 29.95 in 6.2 mi NNE 18.4 mph - N/A   Scattered Clouds
9:00 PM 71.6 °F - 51.8 °F 50% 30.01 in 6.2 mi North 18.4 mph - N/A   Scattered Clouds
10:00 PM 68.0 °F - 51.8 °F 56% 30.04 in 6.2 mi North 18.4 mph - N/A   Scattered Clouds
11:00 PM 66.2 °F - 51.8 °F 60% 30.06 in 6.2 mi North 16.1 mph - N/A   Scattered Clouds